#timestamp,LO_Frequency,Hit,StdDev 
1529553615.3,286046998.7,N
1529553635.1,286046999.1,N
1529553636.0,286046999.1,N
1529553655.8,286046997.0,N
1529553675.7,286046996.7,N
1529553695.6,286046996.7,N
1529553715.4,286047000.9,N
1529553735.2,286046998.1,N
1529553755.1,286046999.9,N
1529553756.0,286046999.9,N
1529553775.8,286046998.5,N
1529553795.7,286047000.4,N
1529553815.5,286047000.3,N
1529553835.3,286047000.5,N
1529553855.2,286047000.9,N
1529553875.0,286046998.5,N
1529553875.9,286046998.5,N
1529553895.8,286046998.3,N
1529553915.8,286046998.3,N
1529553935.7,286046998.4,N
1529553955.5,286046998.6,N
1529553975.3,286046999.9,N
1529553995.2,286047000.4,N
1529554015.0,286046998.2,N
1529554015.9,286046998.2,N
1529554035.8,286046999.0,N
1529554055.6,286046999.0,N
1529554075.4,286047001.1,N
1529554095.3,286047000.0,N
1529554115.1,286047001.1,N
1529554135.9,286046998.1,N
1529554155.7,286046999.3,N
1529554175.5,286047000.7,N
1529554195.4,286046998.6,N
1529554215.2,286047000.7,N
1529554235.0,286047001.2,N
1529554235.9,286047001.2,N
1529554255.8,286047000.8,N
1529554275.6,286047000.2,N
1529554295.5,286046999.9,N
1529554315.5,286047000.8,N
1529554335.4,286047000.2,N
1529554355.2,286047000.9,N
1529554375.0,286047000.3,N
1529554375.9,286047000.3,N
1529554395.0,286047002.8,N
1529554395.9,286047002.8,N
1529554415.8,286047001.2,N
1529554435.6,286047000.7,N
1529554455.4,286047000.0,N
1529554475.3,286047001.1,N
1529554495.1,286047001.1,N
1529554515.9,286047001.0,N
1529554535.7,286046998.5,N
1529554555.5,286047000.1,N
1529554575.4,286047000.4,N
1529554595.2,286047002.4,N
1529554615.0,286047000.1,N
1529554615.9,286047000.1,N
1529554635.8,286047000.5,N
1529554655.6,286047002.5,N
1529554675.5,286047004.0,Y
1529554695.3,286047001.3,P
1529554715.1,286047002.3,P
1529554735.9,286047004.0,P
1529554755.7,286047001.6,N
1529554775.5,286047002.3,N
1529554795.3,286047002.3,N
1529554815.1,286047002.4,N
1529554835.9,286047000.6,N
1529554855.7,286047000.8,N
1529554875.6,286047000.3,N
1529554895.4,286047001.3,N
1529554915.2,286047002.4,N
1529554935.1,286047001.5,N
1529554936.0,286047001.5,N
1529554955.8,286047004.1,Y
1529554975.7,286046998.1,P
1529554995.5,286047000.1,N
1529555015.3,286046998.2,N
1529555035.2,286046998.8,N
1529555055.9,286047000.3,N
1529555075.7,286046999.7,N
1529555095.6,286047000.2,N
1529555115.4,286047000.0,N
1529555135.3,286046999.0,N
1529555155.1,286046998.8,N
1529555156.0,286046998.8,N
1529555175.8,286047000.8,N
1529555195.7,286046998.8,N
1529555215.5,286046996.6,Y
1529555235.3,286046996.6,P
1529555255.2,286046997.0,N
1529555275.0,286046996.8,N
1529555275.9,286046996.8,N
1529555295.8,286046997.2,N
1529555315.6,286046997.1,N
1529555335.4,286046997.4,N
1529555355.3,286046996.6,Y
1529555375.1,286046998.4,P
1529555395.9,286047000.2,N
1529555415.7,286046999.7,N
1529555435.5,286047000.2,N
1529555455.4,286047002.4,N
1529555475.2,286047002.7,N
1529555495.0,286047000.2,N
1529555495.9,286047000.2,N
1529555515.8,286047000.0,N
1529555535.6,286047000.8,N
1529555555.5,286046997.1,N
1529555575.3,286046999.5,N
1529555595.1,286046997.9,N
1529555615.9,286046998.3,N
1529555635.7,286046998.2,N
1529555655.5,286047000.8,N
1529555675.6,286047001.2,N
1529555695.5,286046999.1,N
1529555715.3,286046998.4,N
1529555735.2,286046998.2,N
1529555755.9,286047001.0,N
1529555775.7,286046998.1,N
1529555795.6,286046998.6,N
1529555815.4,286046996.9,N
1529555835.2,286046999.5,N
1529555855.1,286046998.4,N
1529555856.0,286046998.4,N
1529555875.8,286046998.4,N
1529555895.7,286046999.5,N
1529555915.5,286046999.0,N
1529555935.3,286047001.2,N
1529555955.2,286047001.1,N
1529555975.0,286046996.8,N
1529555975.9,286046996.8,N
1529555995.8,286046997.0,N
1529556015.6,286046998.8,N
1529556035.4,286046998.4,N
1529556055.3,286047000.8,N
1529556075.1,286046998.7,N
1529556095.8,286046998.2,N
1529556115.7,286046999.3,N
1529556135.5,286046999.1,N
1529556155.4,286046997.0,N
1529556175.2,286046997.3,N
1529556195.0,286046996.6,N
1529556195.9,286046996.6,N
1529556215.8,286046996.7,N
1529556235.6,286046997.6,N
1529556255.4,286046996.6,N
1529556275.3,286046994.9,Y
1529556295.1,286046997.8,P
1529556315.9,286046997.0,P
1529556335.7,286046997.0,P
1529556355.5,286046997.3,Y
1529556375.4,286046998.4,P
1529556395.2,286047000.0,N
1529556415.1,286047001.9,N
1529556416.0,286047001.9,N
1529556435.8,286047002.8,N
1529556455.6,286047001.3,N
1529556475.5,286047002.1,N
1529556495.3,286047001.0,N
1529556515.1,286046998.7,N
1529556535.9,286046998.3,N
1529556555.7,286047002.4,N
1529556575.6,286047002.4,N
1529556595.4,286047000.6,N
1529556615.2,286046999.8,N
1529556635.1,286047002.4,N
1529556636.0,286047002.4,N
1529556655.8,286047002.8,N
1529556675.6,286047002.7,N
1529556695.5,286046998.4,N
1529556715.3,286047001.1,N
1529556735.2,286046998.6,N
1529556755.9,286046999.4,N
1529556775.7,286046998.1,N
1529556795.6,286046998.4,N
1529556815.4,286046999.3,N
1529556835.2,286046998.7,N
1529556855.1,286046998.5,N
1529556856.0,286046998.5,N
1529556875.8,286046998.3,N
1529556895.7,286047000.3,N
1529556915.5,286047000.3,N
1529556935.3,286047000.9,N
1529556955.2,286047000.8,N
1529556975.0,286047000.5,N
1529556975.9,286047000.5,N
1529556995.7,286046998.5,N
1529557015.6,286047000.8,N
1529557035.4,286046998.2,N
1529557055.3,286046999.3,N
1529557075.1,286046996.8,N
1529557076.0,286046996.8,N
1529557095.8,286046997.6,N
1529557115.7,286046996.8,N
1529557135.5,286046997.0,N
1529557155.3,286046998.4,N
1529557175.2,286047001.2,N
1529557195.0,286046999.1,N
1529557195.9,286046999.1,N
